Miscellaneous Local Product
Issued by NWS Hastings, NE

Home | Current Version | Previous Version | Graphics & Text | Print | Product List | Glossary On
Versions: 1 2 3 4 5 6 7 8 9 10 11 12 13 14 15 16 17 18 19 20 21 22 23 24 25 26 27 28 29 30 31 32 33 34 35 36 37 38 39 40 41 42 43 44 45 46 47 48 49 50
749
AXUS43 KGID 301602
MISGRI

GID CWA HOURLY WEATHER ROUNDUP
NATIONAL WEATHER SERVICE HASTINGS NE
1100 AM CDT SUN APR 30 2017

NOTE: "FAIR" INDICATES FEW OR NO CLOUDS BELOW 12,000 FEET WITH NO
SIGNIFICANT WEATHER AND/OR OBSTRUCTIONS TO VISIBILITY.

...SOUTH CENTRAL NEBRASKA...

CITY           SKY/WX    TMP DP  RH WIND       PRES   REMARKS
GRAND ISLAND   TSTM      35  35 100 N26G39    29.67R FOG     WCI  22
HASTINGS       RAIN      37  35  92 NE26G39   29.66R FOG     WCI  25
KEARNEY        CLOUDY    34  30  86 N25G35    29.67F WCI  21
ORD            LGT SNOW  34  31  88 N23G31    29.75F VSB 1   WCI  22
YORK           MIX PCPN  37  37 100 NE38G48   29.58F VSB 1/2 WCI  24
AURORA         TSTM      37  37 100 NE33G43   29.60F WCI  24
LEXINGTON      LGT RAIN  36  32  83 N24       29.77R WCI  25
HOLDREGE       LGT SNOW  33  32  96 N24G31    29.68F VSB 1   WCI  20
HEBRON         DRIZZLE   38  37  98 NE14      29.62R WCI  30

...NEBRASKA PANHANDLE...

CITY           SKY/WX    TMP DP  RH WIND       PRES   REMARKS
CHADRON        MOSUNNY   48  25  40 N9        30.02S
ALLIANCE       CLOUDY    43  24  47 N17       29.96S
SCOTTSBLUFF    CLOUDY    47  24  40 N18       30.00S
SIDNEY         CLOUDY    40  22  48 N29G41    29.93F WCI  29

...WESTERN AND NORTH CENTRAL NEBRASKA...

CITY           SKY/WX    TMP DP  RH WIND       PRES   REMARKS
VALENTINE      PTSUNNY   46  16  30 N22G30    29.94S
AINSWORTH      PTSUNNY   41  24  50 N20G25    29.89F
ONEILL         LGT RAIN  39  31  71 N24       29.86F WCI  28
BROKEN BOW     LGT RAIN  40  28  62 N31G46    29.70F WCI  28
IMPERIAL       CLOUDY    42  24  49 N30G45    29.82R
NORTH PLATTE   CLOUDY    43  22  43 N26G44    29.77F
MCCOOK         LGT SNOW  35  30  82 N31G37    29.76F WCI  22

...EASTERN NEBRASKA...

CITY           SKY/WX    TMP DP  RH WIND       PRES   REMARKS
NORFOLK        RAIN      37  35  92 NE25G38   29.74F FOG     WCI  25
SO SIOUX CITY  LGT RAIN  41  39  93 NE16G30   29.81F
TEKAMAH        LGT RAIN  40  37  89 NE25G31   29.75F FOG     WCI  29
COLUMBUS       CLOUDY    39  34  81 NE35G40   29.68F WCI  27
ALBION         CLOUDY    37  34  89 N24G35    29.74F WCI  25
OMAHA EPPLEY   CLOUDY    41  36  82 NE22G36   29.68F
OFFUTT AFB     CLOUDY    41  38  87 NE15G33   29.64F
MILLARD        CLOUDY    42  39  89 NE12G26   29.65F
LINCOLN        RAIN      40  38  93 NE30G41   29.58S VSB 3/4 WCI  28
NEBRASKA CITY  CLOUDY    41  41 100 NE25G37   29.54F
BEATRICE       CLOUDY    40  39  97 NE10G16   29.55R WCI  34
FALLS CITY     LGT RAIN  44  43  96 E22G31    29.50F FOG

...NORTHERN KANSAS...

CITY           SKY/WX    TMP DP  RH WIND       PRES   REMARKS
GOODLAND       CLOUDY    36  25  64 N30G44    29.79F WCI  23
HILL CITY      SNOW      34  34 100 N21G31    29.65F VSB 1/2 WCI  22
PHILLIPSBURG   LGT SNOW  34  34 100 N13G20    29.66R WCI  25
HAYS           CLOUDY    35  35 100 N23       29.56S FOG     WCI  23
RUSSELL        LGT SNOW  38  37  97 N21G31    29.53S FOG     WCI  28
CONCORDIA      LGT RAIN  40  39  97 NE15G24   29.54F FOG     WCI  32
SALINA         LGT RAIN  44  42  93 NE12      29.50S FOG
TOPEKA         LGT RAIN  50  49  96 E12       29.48F



USA.gov is the U.S. government's official web portal to all federal, state and local government web resources and services.